Theta_e
334 339 342 339 338 335 334 333 332 332 332 331 331 330 331 330 331 334 334 334 334 334 333 333 332 333 332 330 330 331 332 333 334 334 335 336 339 337 334 333 337 332 334
335 338 340 338 336 334 332 331 331 331 331 331 330 330 329 331 332 333 333 334 334 333 332 332 333 331 330 329 330 331 333 333 333 333 334 337 338 336 335 334 336 333 335
336 337 337 338 335 333 331 330 330 330 330 330 330 329 330 331 331 333 333 334 333 332 331 332 332 331 330 331 331 332 334 333 333 334 335 334 334 338 338 338 337 338 338
335 335 336 336 334 332 330 330 330 329 329 329 328 328 329 330 331 332 332 333 333 333 333 333 331 330 330 332 333 333 334 334 335 337 334 334 334 338 338 337 337 337 338
334 336 334 335 333 331 330 329 329 328 328 328 327 328 329 331 331 331 331 332 333 333 333 331 330 330 331 333 333 333 334 335 335 334 334 334 333 336 337 335 335 335 336
334 336 334 334 331 330 329 328 327 326 327 327 327 328 328 329 329 331 331 331 331 331 332 330 330 330 331 331 331 331 332 334 334 332 332 332 331 335 335 334 333 333 334
335 335 333 333 330 329 327 327 326 326 326 326 325 325 325 326 328 329 331 330 330 330 330 329 329 330 330 329 329 329 331 331 330 330 329 329 329 331 332 331 332 332 332
334 334 331 326 328 326 325 325 325 325 325 324 325 324 324 325 326 327 329 330 329 329 328 329 329 329 327 325 325 327 328 328 327 326 326 326 330 329 330 330 331 330 329
334 331 329 326 323 324 324 324 323 323 323 322 321 321 320 320 322 323 324 329 327 328 328 328 327 326 324 321 321 322 325 325 325 325 323 325 330 331 331 330 329 328 328
331 328 325 326 326 324 322 321 322 321 320 318 318 316 316 317 317 318 323 325 326 326 326 327 325 322 320 318 317 318 322 322 321 323 324 325 328 330 328 327 326 326 326
325 322 322 324 325 324 322 317 319 317 317 316 316 315 317 320 319 319 316 320 325 324 325 325 322 319 317 315 314 315 319 320 319 318 321 326 326 327 327 326 325 326 326
321 318 319 324 324 323 319 321 321 319 319 319 319 319 318 318 317 317 315 316 321 324 323 321 319 317 319 316 314 315 316 317 316 313 313 324 325 325 325 324 324 325 324
323 317 318 323 324 323 321 322 321 320 320 320 319 319 318 318 319 319 320 321 323 320 320 320 319 318 316 314 313 313 314 315 315 312 308 317 323 324 324 323 322 323 321
320 317 319 323 323 323 323 322 321 320 320 319 319 318 318 318 318 318 319 320 322 321 320 319 316 313 310 308 306 306 307 310 312 311 307 310 319 323 322 321 321 320 319
320 320 320 323 323 323 322 322 320 320 319 318 319 318 318 318 317 318 319 319 320 322 321 316 314 310 307 305 304 302 301 301 306 308 309 305 310 319 320 320 319 319 318
325 323 322 322 323 322 321 321 320 319 319 319 319 318 318 318 318 317 317 317 319 321 320 316 314 309 307 304 301 299 298 297 299 303 306 306 305 309 316 318 318 318 317
327 325 322 320 322 322 321 321 321 320 318 319 318 317 317 317 317 317 316 316 317 318 317 316 313 304 299 297 295 296 297 296 296 298 303 304 304 304 307 311 316 315 314
329 323 319 317 318 320 320 321 320 320 319 319 318 317 316 316 316 316 315 315 316 316 316 315 307 300 296 294 292 292 293 295 295 297 299 301 302 302 304 305 308 313 313
328 325 318 317 316 317 317 317 318 317 317 318 318 316 315 314 314 314 315 315 316 316 314 314 306 300 295 293 292 291 291 292 294 294 296 298 298 299 300 302 302 304 309
327 327 324 320 318 316 315 316 316 316 315 315 315 314 314 314 313 313 313 314 314 314 314 313 306 299 295 293 290 288 288 289 292 293 292 295 296 297 298 299 300 300 304
324 326 325 322 321 318 316 315 313 311 312 311 312 313 313 313 312 312 312 312 312 311 313 313 301 295 293 292 289 287 287 288 289 291 291 292 292 294 294 296 297 298 299
322 322 323 323 322 320 318 317 318 317 314 312 312 311 312 311 311 311 311 311 311 310 311 310 300 295 294 292 293 290 286 287 288 290 290 289 289 290 291 291 293 294 295
317 319 320 321 322 321 320 319 317 315 313 310 310 310 310 308 308 308 308 309 310 309 308 309 301 298 295 292 294 296 291 293 289 289 288 288 287 288 289 289 289 290 292
312 315 317 318 318 320 320 317 315 313 312 314 314 314 310 306 304 305 305 307 308 308 307 308 307 301 301 294 294 297 298 296 290 286 288 287 288 287 288 288 287 288 289
311 311 313 314 315 316 317 317 315 313 314 314 314 312 309 305 303 302 303 304 305 307 307 307 307 305 304 300 296 297 296 293 293 290 286 284 286 286 287 287 287 286 287
310 310 310 310 311 313 314 315 314 314 313 311 311 311 309 306 303 301 301 302 304 305 305 305 305 305 304 303 301 299 296 293 290 288 287 285 284 285 286 286 286 286 286
Wind_Speed
11 13 10 12 12 11 10 10 10 10 10 11 11 10 12 10 10 11 12 12 11 12 12 12 12 13 14 14 13 13 14 13 13 13 13 12 13 17 18 15 15 12 12
14 13 10 12 11 12 10 10 10 11 11 11 10 10 11 10 11 11 12 11 11 11 12 12 12 14 13 12 12 12 13 12 11 10 11 4 13 17 18 17 14 15 13
17 14 12 11 11 12 10 10 10 10 11 10 10 10 10 10 11 12 13 12 10 10 11 10 13 13 12 12 11 11 12 10 10 11 9 9 13 16 18 19 19 16 16
12 11 12 9 11 12 11 10 10 10 10 10 9 9 10 10 11 12 12 12 10 10 11 13 13 13 12 11 13 13 11 12 12 10 9 12 13 21 21 23 23 23 24
11 12 12 10 12 12 10 10 9 9 9 10 9 8 9 10 11 11 11 11 11 12 12 13 13 11 12 14 14 14 15 14 8 14 14 12 10 18 22 22 21 22 20
10 14 11 11 11 11 10 9 8 9 8 9 9 9 10 11 11 12 10 10 10 11 12 13 11 13 14 17 16 15 17 13 11 11 13 14 12 20 20 20 21 21 21
12 12 11 10 11 10 10 9 9 9 8 9 9 9 10 10 12 12 12 9 10 11 11 12 12 13 16 17 17 16 16 14 12 12 12 13 14 18 17 17 19 20 21
11 10 10 10 11 10 9 9 8 8 8 8 8 8 8 9 11 12 13 9 10 11 11 11 13 15 16 16 16 17 16 13 12 12 11 11 15 16 15 17 19 21 20
10 9 8 9 10 10 9 9 8 8 9 8 8 8 7 7 8 10 10 11 8 10 10 11 14 15 14 15 15 16 15 15 13 9 11 9 15 19 20 20 20 19 20
8 7 6 6 5 6 7 8 8 8 7 7 7 6 3 3 2 6 11 12 6 9 9 12 14 13 13 15 15 15 10 12 13 11 9 8 16 20 19 19 18 19 18
6 6 5 5 5 5 6 6 7 5 4 3 4 2 4 3 4 3 6 8 8 8 9 12 11 9 12 13 13 11 9 7 9 10 9 12 16 19 19 19 19 20 20
9 7 5 5 5 5 3 4 3 3 4 4 5 5 4 4 4 4 3 4 5 9 8 6 5 3 4 3 4 5 5 7 8 9 9 19 16 17 18 18 18 19 21
10 7 7 5 5 4 3 2 1 2 2 3 4 4 3 3 2 1 0 2 4 6 4 5 5 4 7 6 7 6 6 6 6 6 14 24 13 16 17 16 16 19 19
10 9 8 7 5 4 3 2 3 2 2 2 3 4 3 2 3 3 2 1 2 0 0 2 4 5 7 8 8 9 9 6 5 5 10 22 24 15 16 15 16 17 18
10 10 10 7 6 4 3 2 2 2 1 3 2 3 4 3 3 3 2 2 3 1 1 3 4 5 6 7 8 8 8 7 7 4 4 17 21 22 15 14 15 16 16
8 9 9 10 8 7 5 4 3 3 3 1 1 3 3 4 4 4 3 1 1 2 2 2 4 4 5 6 7 7 7 6 6 5 4 5 15 19 21 12 13 14 15
7 6 7 6 7 9 8 7 5 4 3 3 2 1 2 3 4 5 3 3 4 2 1 2 6 6 5 5 6 5 5 6 5 5 4 3 5 13 18 20 13 12 11
4 6 6 6 6 7 6 5 4 4 4 3 2 2 1 2 4 4 4 2 0 3 3 3 5 5 4 4 4 3 3 4 5 5 4 4 4 5 9 15 18 14 12
6 8 8 9 8 7 4 2 4 3 3 2 2 2 3 2 3 4 4 3 2 3 4 3 5 5 5 4 4 3 3 2 3 4 4 4 4 4 4 8 12 17 10
9 8 8 8 8 8 5 5 4 4 3 3 3 3 3 3 3 4 4 4 3 4 4 4 6 4 4 5 5 4 2 1 0 2 4 3 3 3 4 5 5 6 11
10 10 10 11 10 7 6 5 5 5 5 3 3 5 5 5 5 4 4 5 4 5 5 7 5 7 4 5 4 2 1 1 1 1 2 3 4 2 2 2 2 2 4
12 11 10 10 10 9 6 6 5 2 3 4 4 5 7 6 6 6 6 5 5 5 6 6 8 6 3 7 3 2 3 3 5 5 4 4 5 4 4 3 2 1 1
9 9 9 9 9 9 8 5 4 2 3 4 6 7 8 8 7 7 7 5 6 6 7 6 10 11 7 8 9 3 2 4 4 4 6 5 6 5 5 6 5 4 3
7 7 8 8 9 8 9 8 9 8 8 7 7 6 6 10 9 9 8 7 7 7 9 8 9 10 8 7 5 7 4 1 4 4 4 6 6 6 7 5 5 5 6
7 5 5 6 8 8 8 11 9 11 9 7 5 8 9 9 10 9 9 9 8 8 9 10 9 11 10 8 8 4 6 3 3 3 4 5 6 7 7 7 7 6 7
5 3 3 4 6 8 9 11 13 13 11 9 9 7 7 7 7 10 9 10 9 8 10 9 11 12 11 10 9 10 8 5 6 4 3 3 6 7 8 7 8 7 7
Wind_Direction
129 120 115 103 96 86 73 61 51 41 37 34 35 38 46 44 29 22 28 37 43 47 47 48 48 41 38 37 30 27 24 18 10 359 2 3 41 42 35 33 10 35 31
121 122 111 107 100 89 75 62 54 45 38 37 40 39 48 38 25 34 32 38 45 49 49 47 43 47 39 43 39 32 24 16 0 356 344 52 50 49 45 42 35 39 46
111 123 118 108 104 95 83 70 60 53 46 44 41 42 45 37 33 29 28 29 50 46 57 51 55 47 46 40 38 35 27 16 355 337 302 54 58 48 47 45 41 42 41
132 128 116 108 98 87 78 70 66 57 53 51 45 46 41 42 29 26 26 33 48 50 60 62 54 48 45 42 47 40 27 6 355 338 53 52 59 57 53 50 45 43 46
131 109 107 101 96 88 82 78 71 65 60 57 54 54 51 37 29 25 26 32 49 52 65 63 53 48 43 51 53 48 20 20 22 61 57 55 56 55 53 50 48 47 46
123 102 114 107 99 94 88 80 76 71 66 63 62 51 40 38 36 25 25 41 52 59 58 63 56 53 52 51 47 39 40 29 52 64 57 54 47 46 49 48 51 48 47
122 118 115 101 97 92 83 77 78 73 70 60 48 40 31 21 21 27 25 44 60 60 63 65 63 61 59 54 48 43 37 40 52 56 53 47 44 42 41 44 52 51 47
118 116 118 94 84 83 82 80 74 71 65 61 58 51 46 28 12 23 20 28 64 65 68 67 69 67 57 55 51 45 35 26 41 58 55 45 38 41 48 57 57 54 49
125 122 124 128 111 88 78 77 77 75 66 62 55 53 52 41 24 12 14 27 64 75 75 76 75 70 64 56 40 29 36 37 39 45 51 47 49 57 57 54 55 54 53
117 123 132 140 124 109 103 68 74 77 70 63 57 46 37 96 35 18 346 26 53 82 76 86 79 76 73 63 47 28 21 50 40 25 46 45 55 57 56 56 56 54 58
136 140 156 145 127 111 104 109 124 115 119 147 139 87 252 26 25 41 37 14 30 86 93 95 99 104 90 73 58 34 30 62 50 34 12 37 58 56 59 58 59 63 65
164 158 166 169 131 125 113 118 84 87 45 46 36 29 15 22 31 8 20 15 39 84 101 117 128 206 213 61 75 51 54 69 54 42 16 19 58 64 58 57 63 64 63
163 168 183 171 151 143 117 116 85 52 52 55 44 25 21 1 359 20 43 202 161 182 144 171 182 49 38 40 45 40 44 53 72 58 20 19 47 65 67 60 61 66 64
172 176 185 181 160 142 141 174 99 74 34 26 30 22 359 357 352 352 359 330 281 129 294 90 72 85 80 75 68 61 48 41 52 65 42 24 24 61 69 64 62 70 68
181 183 184 178 173 158 174 132 107 114 78 33 11 15 343 351 352 314 358 342 333 44 88 110 128 102 92 81 72 68 64 51 40 41 65 34 30 29 60 67 65 67 70
192 194 188 181 179 171 180 181 170 176 146 171 11 12 349 333 334 317 324 352 321 48 9 159 118 135 100 97 83 73 70 64 51 38 44 54 36 34 32 60 69 69 73
193 194 206 193 189 187 184 183 187 189 191 183 163 164 342 335 335 307 300 299 93 105 294 77 91 71 72 73 77 65 83 66 59 56 49 43 34 50 35 29 42 67 70
188 214 198 199 206 214 209 196 199 187 203 203 206 158 105 320 307 283 279 266 217 130 176 136 129 132 131 130 113 86 60 79 73 65 59 45 36 29 44 33 31 37 67
231 213 203 202 206 209 212 219 220 218 229 248 231 204 168 205 258 277 283 281 255 186 178 171 157 152 148 134 122 90 72 41 85 89 99 93 73 54 33 27 28 30 38
225 223 217 214 205 198 194 201 212 223 226 239 253 235 207 198 245 271 266 260 249 250 191 156 147 129 150 156 136 111 100 70 271 125 128 119 88 74 52 26 10 20 24
233 229 219 214 215 203 209 207 225 230 219 220 239 238 230 205 214 232 252 257 238 240 240 170 125 140 144 135 123 131 135 220 240 190 158 151 148 139 112 69 23 22 2
243 238 242 240 231 219 222 225 248 261 239 230 222 230 236 234 220 227 227 236 246 251 241 156 152 158 131 187 188 164 195 208 219 206 194 194 178 172 171 168 171 170 270
273 263 262 259 255 249 236 251 242 260 262 233 232 232 224 228 227 226 239 233 227 232 237 206 177 179 188 196 222 237 174 227 150 191 217 209 202 198 188 187 189 198 205
339 321 291 272 263 251 246 240 241 241 248 237 233 227 217 221 220 220 224 231 222 222 228 232 179 191 192 194 211 237 232 284 194 192 206 216 222 216 201 202 196 202 203
24 349 310 288 268 255 241 243 248 250 259 260 249 232 233 223 220 218 221 228 226 220 226 226 214 194 206 191 201 160 203 205 225 216 186 197 218 216 210 202 199 201 203
29 9 327 286 265 249 242 243 247 253 258 261 256 243 243 238 225 227 227 231 235 235 228 229 226 226 210 219 205 204 192 177 190 180 214 172 202 203 205 203 207 202 193